Wetterdaten: Freitag, 23.10.2015
Datum Zeit Temp. A. Feuchte A. Luftdruck Regen Wind Richtung Richtung Sonnenschein ET UV Solar Taupunkt Windchill Windben Empfang
23.10.2015 00:00 7,8 C 93 % 1020,5 hPa 0,0 l/m 4,1 km/h (1 Bft) W-SW 246 0 min 0,000 mm 0,0 UV-I 0 W/m 6,7 C 7,8 C 9,7 km/h (2 Bft) 98,21 %
23.10.2015 00:05 7,8 C 93 % 1020,5 hPa 0,0 l/m 4,0 km/h (1 Bft) SW 232 0 min 0,000 mm 0,0 UV-I 0 W/m 6,7 C 7,8 C 8,0 km/h (2 Bft) 98,23 %
23.10.2015 00:10 7,7 C 94 % 1020,5 hPa 0,0 l/m 4,2 km/h (1 Bft) SW 225 0 min 0,000 mm 0,0 UV-I 0 W/m 6,8 C 7,7 C 9,7 km/h (2 Bft) 100,00 %
23.10.2015 00:15 7,7 C 94 % 1020,5 hPa 0,0 l/m 4,6 km/h (1 Bft) SW 217 0 min 0,000 mm 0,0 UV-I 0 W/m 6,8 C 7,7 C 9,7 km/h (2 Bft) 99,19 %
23.10.2015 00:20 7,7 C 94 % 1020,5 hPa 0,0 l/m 5,7 km/h (1 Bft) SW 226 0 min 0,000 mm 0,0 UV-I 0 W/m 6,8 C 7,7 C 11,3 km/h (2 Bft) 99,11 %
23.10.2015 00:25 7,6 C 94 % 1020,5 hPa 0,0 l/m 6,7 km/h (2 Bft) S-SW 202 0 min 0,000 mm 0,0 UV-I 0 W/m 6,7 C 7,4 C 14,5 km/h (3 Bft) 99,17 %
23.10.2015 00:30 7,6 C 95 % 1020,5 hPa 0,0 l/m 5,2 km/h (1 Bft) S-SW 200 0 min 0,000 mm 0,0 UV-I 0 W/m 6,9 C 7,6 C 11,3 km/h (2 Bft) 100,00 %
23.10.2015 00:35 7,6 C 95 % 1020,5 hPa 0,0 l/m 6,5 km/h (2 Bft) S-SW 211 0 min 0,000 mm 0,0 UV-I 0 W/m 6,9 C 7,5 C 14,5 km/h (3 Bft) 99,08 %
23.10.2015 00:40 7,6 C 95 % 1020,5 hPa 0,0 l/m 4,8 km/h (1 Bft) SW 217 0 min 0,000 mm 0,0 UV-I 0 W/m 6,9 C 7,6 C 9,7 km/h (2 Bft) 100,00 %
23.10.2015 00:45 7,6 C 95 % 1020,5 hPa 0,2 l/m 5,9 km/h (2 Bft) S-SW 211 0 min 0,000 mm 0,0 UV-I 0 W/m 6,9 C 7,6 C 12,9 km/h (3 Bft) 98,29 %
23.10.2015 00:50 7,6 C 95 % 1020,5 hPa 0,0 l/m 5,8 km/h (2 Bft) S-SW 209 0 min 0,000 mm 0,0 UV-I 0 W/m 6,9 C 7,6 C 9,7 km/h (2 Bft) 100,00 %
23.10.2015 00:55 7,6 C 95 % 1020,6 hPa 0,0 l/m 6,7 km/h (2 Bft) SW 225 0 min 0,000 mm 0,0 UV-I 0 W/m 6,9 C 7,4 C 11,3 km/h (2 Bft) 100,00 %
23.10.2015 01:00 7,6 C 95 % 1020,5 hPa 0,0 l/m 5,4 km/h (1 Bft) SW 219 0 min 0,000 mm 0,0 UV-I 0 W/m 6,9 C 7,6 C 9,7 km/h (2 Bft) 99,15 %
23.10.2015 01:05 7,6 C 96 % 1020,6 hPa 0,0 l/m 4,7 km/h (1 Bft) SW 229 0 min 0,000 mm 0,0 UV-I 0 W/m 7,0 C 7,6 C 9,7 km/h (2 Bft) 99,17 %
23.10.2015 01:10 7,6 C 96 % 1020,6 hPa 0,0 l/m 5,1 km/h (1 Bft) SW 219 0 min 0,000 mm 0,0 UV-I 0 W/m 7,0 C 7,6 C 9,7 km/h (2 Bft) 100,00 %
23.10.2015 01:15 7,6 C 96 % 1020,5 hPa 0,2 l/m 5,5 km/h (1 Bft) S-SW 213 0 min 0,000 mm 0,0 UV-I 0 W/m 7,0 C 7,6 C 11,3 km/h (2 Bft) 99,13 %
23.10.2015 01:20 7,6 C 96 % 1020,5 hPa 0,0 l/m 8,0 km/h (2 Bft) W 266 0 min 0,000 mm 0,0 UV-I 0 W/m 7,0 C 6,3 C 16,1 km/h (3 Bft) 99,21 %
23.10.2015 01:25 7,6 C 96 % 1020,6 hPa 0,2 l/m 7,8 km/h (2 Bft) W-SW 243 0 min 0,000 mm 0,0 UV-I 0 W/m 7,0 C 6,5 C 14,5 km/h (3 Bft) 99,12 %
23.10.2015 01:30 7,6 C 96 % 1020,6 hPa 0,0 l/m 5,9 km/h (2 Bft) W 268 0 min 0,000 mm 0,0 UV-I 0 W/m 7,0 C 7,6 C 11,3 km/h (2 Bft) 100,00 %
23.10.2015 01:35 7,7 C 96 % 1020,6 hPa 0,0 l/m 7,1 km/h (2 Bft) S-SW 212 0 min 0,000 mm 0,0 UV-I 0 W/m 7,1 C 7,1 C 12,9 km/h (3 Bft) 99,13 %
23.10.2015 01:40 7,7 C 96 % 1020,7 hPa 0,0 l/m 7,2 km/h (2 Bft) SW 227 0 min 0,000 mm 0,0 UV-I 0 W/m 7,1 C 7,1 C 12,9 km/h (3 Bft) 99,21 %
23.10.2015 01:45 7,7 C 96 % 1020,6 hPa 0,0 l/m 6,6 km/h (2 Bft) SW 217 0 min 0,000 mm 0,0 UV-I 0 W/m 7,1 C 7,6 C 12,9 km/h (3 Bft) 100,00 %
23.10.2015 01:50 7,7 C 96 % 1020,6 hPa 0,0 l/m 6,7 km/h (2 Bft) SW 235 0 min 0,000 mm 0,0 UV-I 0 W/m 7,1 C 7,5 C 14,5 km/h (3 Bft) 100,00 %
23.10.2015 01:55 7,7 C 96 % 1020,6 hPa 0,2 l/m 7,8 km/h (2 Bft) SW 219 0 min 0,000 mm 0,0 UV-I 0 W/m 7,1 C 6,6 C 14,5 km/h (3 Bft) 100,00 %
23.10.2015 02:00 7,7 C 96 % 1020,6 hPa 0,0 l/m 7,9 km/h (2 Bft) W-SW 249 0 min 0,000 mm 0,0 UV-I 0 W/m 7,1 C 6,5 C 17,7 km/h (3 Bft) 100,00 %
23.10.2015 02:05 7,8 C 96 % 1020,7 hPa 0,0 l/m 7,2 km/h (2 Bft) W-SW 258 0 min 0,000 mm 0,0 UV-I 0 W/m 7,2 C 7,2 C 16,1 km/h (3 Bft) 100,00 %
23.10.2015 02:10 7,8 C 96 % 1020,7 hPa 0,0 l/m 7,1 km/h (2 Bft) W-SW 251 0 min 0,000 mm 0,0 UV-I 0 W/m 7,2 C 7,2 C 14,5 km/h (3 Bft) 98,43 %
23.10.2015 02:15 7,8 C 96 % 1020,8 hPa 0,0 l/m 6,9 km/h (2 Bft) W-NW 294 0 min 0,000 mm 0,0 UV-I 0 W/m 7,2 C 7,4 C 14,5 km/h (3 Bft) 98,17 %
23.10.2015 02:20 7,8 C 96 % 1020,8 hPa 0,0 l/m 6,4 km/h (2 Bft) SW 234 0 min 0,000 mm 0,0 UV-I 0 W/m 7,2 C 7,8 C 17,7 km/h (3 Bft) 100,00 %
23.10.2015 02:30 7,9 C 96 % 1020,8 hPa 0,2 l/m 9,6 km/h (2 Bft) W-SW 246 0 min 0,000 mm 0,0 UV-I 0 W/m 7,3 C 5,5 C 16,1 km/h (3 Bft) 99,62 %
23.10.2015 02:35 7,9 C 96 % 1020,8 hPa 0,0 l/m 7,4 km/h (2 Bft) SW 225 0 min 0,000 mm 0,0 UV-I 0 W/m 7,3 C 7,1 C 16,1 km/h (3 Bft) 100,00 %
23.10.2015 02:40 7,9 C 96 % 1020,9 hPa 0,0 l/m 8,4 km/h (2 Bft) SW 219 0 min 0,000 mm 0,0 UV-I 0 W/m 7,3 C 6,4 C 16,1 km/h (3 Bft) 100,00 %
23.10.2015 02:45 8,0 C 96 % 1020,9 hPa 0,0 l/m 8,7 km/h (2 Bft) W-SW 250 0 min 0,000 mm 0,0 UV-I 0 W/m 7,4 C 6,2 C 17,7 km/h (3 Bft) 98,25 %
23.10.2015 02:50 8,0 C 96 % 1020,9 hPa 0,0 l/m 8,1 km/h (2 Bft) W-NW 284 0 min 0,000 mm 0,0 UV-I 0 W/m 7,4 C 6,7 C 17,7 km/h (3 Bft) 99,11 %
23.10.2015 02:55 8,1 C 96 % 1020,9 hPa 0,0 l/m 7,4 km/h (2 Bft) W-SW 248 0 min 0,000 mm 0,0 UV-I 0 W/m 7,5 C 7,3 C 17,7 km/h (3 Bft) 99,19 %
23.10.2015 03:00 8,1 C 96 % 1020,9 hPa 0,0 l/m 7,6 km/h (2 Bft) W-SW 255 0 min 0,000 mm 0,0 UV-I 0 W/m 7,5 C 7,2 C 14,5 km/h (3 Bft) 98,20 %
23.10.2015 03:05 8,1 C 96 % 1020,9 hPa 0,2 l/m 7,4 km/h (2 Bft) SW 215 0 min 0,000 mm 0,0 UV-I 0 W/m 7,5 C 7,3 C 16,1 km/h (3 Bft) 100,00 %
23.10.2015 03:10 8,1 C 96 % 1020,9 hPa 0,0 l/m 7,8 km/h (2 Bft) W 271 0 min 0,000 mm 0,0 UV-I 0 W/m 7,5 C 7,0 C 14,5 km/h (3 Bft) 98,26 %
23.10.2015 03:15 8,1 C 96 % 1020,9 hPa 0,0 l/m 7,4 km/h (2 Bft) W-SW 256 0 min 0,000 mm 0,0 UV-I 0 W/m 7,5 C 7,3 C 16,1 km/h (3 Bft) 99,10 %
23.10.2015 03:20 8,1 C 96 % 1020,9 hPa 0,0 l/m 7,9 km/h (2 Bft) W-SW 242 0 min 0,000 mm 0,0 UV-I 0 W/m 7,5 C 6,9 C 14,5 km/h (3 Bft) 98,35 %
23.10.2015 03:25 8,1 C 96 % 1020,9 hPa 0,2 l/m 6,7 km/h (2 Bft) W-NW 288 0 min 0,000 mm 0,0 UV-I 0 W/m 7,5 C 7,9 C 12,9 km/h (3 Bft) 98,37 %
23.10.2015 03:30 8,2 C 96 % 1020,9 hPa 0,0 l/m 7,8 km/h (2 Bft) W-NW 286 0 min 0,000 mm 0,0 UV-I 0 W/m 7,6 C 7,1 C 16,1 km/h (3 Bft) 99,08 %
23.10.2015 03:35 8,2 C 96 % 1020,9 hPa 0,0 l/m 7,9 km/h (2 Bft) W-SW 238 0 min 0,000 mm 0,0 UV-I 0 W/m 7,6 C 7,0 C 16,1 km/h (3 Bft) 100,00 %
23.10.2015 03:40 8,2 C 96 % 1020,9 hPa 0,0 l/m 8,0 km/h (2 Bft) W-NW 288 0 min 0,000 mm 0,0 UV-I 0 W/m 7,6 C 7,0 C 14,5 km/h (3 Bft) 98,90 %
23.10.2015 03:45 8,2 C 96 % 1020,9 hPa 0,0 l/m 7,2 km/h (2 Bft) SW 236 0 min 0,000 mm 0,0 UV-I 0 W/m 7,6 C 7,6 C 14,5 km/h (3 Bft) 99,28 %
23.10.2015 03:50 8,3 C 96 % 1020,9 hPa 0,0 l/m 7,6 km/h (2 Bft) W-SW 242 0 min 0,000 mm 0,0 UV-I 0 W/m 7,7 C 7,4 C 14,5 km/h (3 Bft) 100,00 %
23.10.2015 03:55 8,3 C 96 % 1020,9 hPa 0,0 l/m 7,8 km/h (2 Bft) W 278 0 min 0,000 mm 0,0 UV-I 0 W/m 7,7 C 7,2 C 14,5 km/h (3 Bft) 100,00 %
23.10.2015 04:00 8,3 C 95 % 1021,0 hPa 0,0 l/m 8,0 km/h (2 Bft) W-NW 286 0 min 0,000 mm 0,0 UV-I 0 W/m 7,5 C 7,1 C 16,1 km/h (3 Bft) 100,00 %
23.10.2015 04:05 8,3 C 95 % 1021,0 hPa 0,0 l/m 9,4 km/h (2 Bft) SW 230 0 min 0,000 mm 0,0 UV-I 0 W/m 7,5 C 6,1 C 19,3 km/h (3 Bft) 100,00 %
23.10.2015 04:10 8,4 C 95 % 1021,0 hPa 0,0 l/m 9,4 km/h (2 Bft) SW 232 0 min 0,000 mm 0,0 UV-I 0 W/m 7,6 C 6,2 C 19,3 km/h (3 Bft) 99,26 %
23.10.2015 04:15 8,4 C 95 % 1021,1 hPa 0,0 l/m 8,8 km/h (2 Bft) SW 234 0 min 0,000 mm 0,0 UV-I 0 W/m 7,6 C 6,6 C 17,7 km/h (3 Bft) 100,00 %
23.10.2015 04:20 8,4 C 95 % 1021,1 hPa 0,0 l/m 9,0 km/h (2 Bft) SW 227 0 min 0,000 mm 0,0 UV-I 0 W/m 7,6 C 6,5 C 14,5 km/h (3 Bft) 99,17 %
23.10.2015 04:25 8,4 C 95 % 1021,1 hPa 0,0 l/m 8,0 km/h (2 Bft) SW 217 0 min 0,000 mm 0,0 UV-I 0 W/m 7,6 C 7,2 C 16,1 km/h (3 Bft) 100,00 %
23.10.2015 04:30 8,4 C 95 % 1021,1 hPa 0,0 l/m 7,9 km/h (2 Bft) S-SW 202 0 min 0,000 mm 0,0 UV-I 0 W/m 7,6 C 7,2 C 14,5 km/h (3 Bft) 99,12 %
23.10.2015 04:35 8,5 C 95 % 1021,2 hPa 0,0 l/m 7,9 km/h (2 Bft) W 278 0 min 0,000 mm 0,0 UV-I 0 W/m 7,7 C 7,4 C 17,7 km/h (3 Bft) 100,00 %
23.10.2015 04:40 8,4 C 95 % 1021,2 hPa 0,0 l/m 8,2 km/h (2 Bft) W-SW 244 0 min 0,000 mm 0,0 UV-I 0 W/m 7,6 C 7,0 C 19,3 km/h (3 Bft) 100,00 %
23.10.2015 04:45 8,4 C 95 % 1021,3 hPa 0,0 l/m 7,8 km/h (2 Bft) W-SW 244 0 min 0,000 mm 0,0 UV-I 0 W/m 7,6 C 7,3 C 12,9 km/h (3 Bft) 100,00 %
23.10.2015 04:50 8,4 C 95 % 1021,3 hPa 0,0 l/m 7,9 km/h (2 Bft) W-NW 294 0 min 0,000 mm 0,0 UV-I 0 W/m 7,6 C 7,2 C 17,7 km/h (3 Bft) 100,00 %
23.10.2015 04:55 8,4 C 95 % 1021,3 hPa 0,0 l/m 7,7 km/h (2 Bft) SW 225 0 min 0,000 mm 0,0 UV-I 0 W/m 7,6 C 7,4 C 14,5 km/h (3 Bft) 99,15 %
23.10.2015 05:00 8,4 C 95 % 1021,4 hPa 0,0 l/m 7,1 km/h (2 Bft) W-NW 291 0 min 0,000 mm 0,0 UV-I 0 W/m 7,6 C 7,9 C 12,9 km/h (3 Bft) 99,06 %
23.10.2015 05:05 8,4 C 95 % 1021,5 hPa 0,0 l/m 7,4 km/h (2 Bft) SW 223 0 min 0,000 mm 0,0 UV-I 0 W/m 7,6 C 7,6 C 14,5 km/h (3 Bft) 99,19 %
23.10.2015 05:10 8,4 C 96 % 1021,5 hPa 0,0 l/m 6,8 km/h (2 Bft) W-SW 238 0 min 0,000 mm 0,0 UV-I 0 W/m 7,8 C 8,1 C 14,5 km/h (3 Bft) 99,19 %
23.10.2015 05:15 8,4 C 96 % 1021,5 hPa 0,0 l/m 6,5 km/h (2 Bft) W-SW 256 0 min 0,000 mm 0,0 UV-I 0 W/m 7,8 C 8,3 C 11,3 km/h (2 Bft) 100,00 %
23.10.2015 05:20 8,4 C 95 % 1021,4 hPa 0,0 l/m 7,8 km/h (2 Bft) S-SW 213 0 min 0,000 mm 0,0 UV-I 0 W/m 7,6 C 7,3 C 16,1 km/h (3 Bft) 100,00 %
23.10.2015 05:25 8,4 C 95 % 1021,5 hPa 0,0 l/m 6,4 km/h (2 Bft) W 261 0 min 0,000 mm 0,0 UV-I 0 W/m 7,6 C 8,4 C 14,5 km/h (3 Bft) 100,00 %
23.10.2015 05:30 8,5 C 95 % 1021,5 hPa 0,0 l/m 8,3 km/h (2 Bft) SW 219 0 min 0,000 mm 0,0 UV-I 0 W/m 7,7 C 7,1 C 16,1 km/h (3 Bft) 100,00 %
23.10.2015 05:35 8,5 C 96 % 1021,6 hPa 0,0 l/m 6,2 km/h (2 Bft) SW 230 0 min 0,000 mm 0,0 UV-I 0 W/m 7,9 C 8,5 C 12,9 km/h (3 Bft) 100,00 %
23.10.2015 05:40 8,5 C 95 % 1021,6 hPa 0,0 l/m 9,3 km/h (2 Bft) S-SW 211 0 min 0,000 mm 0,0 UV-I 0 W/m 7,7 C 6,4 C 17,7 km/h (3 Bft) 100,00 %
23.10.2015 05:45 8,6 C 95 % 1021,6 hPa 0,0 l/m 7,1 km/h (2 Bft) W-SW 239 0 min 0,000 mm 0,0 UV-I 0 W/m 7,8 C 8,1 C 16,1 km/h (3 Bft) 99,19 %
23.10.2015 05:50 8,6 C 95 % 1021,6 hPa 0,0 l/m 7,7 km/h (2 Bft) S-SW 207 0 min 0,000 mm 0,0 UV-I 0 W/m 7,8 C 7,6 C 14,5 km/h (3 Bft) 100,00 %
23.10.2015 05:55 8,6 C 95 % 1021,6 hPa 0,0 l/m 5,9 km/h (2 Bft) SW 227 0 min 0,000 mm 0,0 UV-I 0 W/m 7,8 C 8,6 C 11,3 km/h (2 Bft) 98,25 %
23.10.2015 06:00 8,6 C 95 % 1021,7 hPa 0,0 l/m 7,2 km/h (2 Bft) SW 226 0 min 0,000 mm 0,0 UV-I 0 W/m 7,8 C 8,0 C 16,1 km/h (3 Bft) 100,00 %
23.10.2015 06:05 8,6 C 95 % 1021,8 hPa 0,0 l/m 7,6 km/h (2 Bft) S-SW 204 0 min 0,000 mm 0,0 UV-I 0 W/m 7,8 C 7,7 C 16,1 km/h (3 Bft) 100,00 %
23.10.2015 06:10 8,7 C 95 % 1021,8 hPa 0,0 l/m 7,1 km/h (2 Bft) W-SW 247 0 min 0,000 mm 0,0 UV-I 0 W/m 7,9 C 8,2 C 14,5 km/h (3 Bft) 100,00 %
23.10.2015 06:15 8,7 C 95 % 1021,8 hPa 0,0 l/m 8,7 km/h (2 Bft) W-SW 244 0 min 0,000 mm 0,0 UV-I 0 W/m 7,9 C 7,0 C 17,7 km/h (3 Bft) 100,00 %
23.10.2015 06:20 8,7 C 95 % 1021,8 hPa 0,0 l/m 7,9 km/h (2 Bft) W-SW 246 0 min 0,000 mm 0,0 UV-I 0 W/m 7,9 C 7,6 C 17,7 km/h (3 Bft) 99,19 %
23.10.2015 06:25 8,7 C 95 % 1021,9 hPa 0,0 l/m 6,4 km/h (2 Bft) W-NW 288 0 min 0,000 mm 0,0 UV-I 0 W/m 7,9 C 8,7 C 11,3 km/h (2 Bft) 99,15 %
23.10.2015 06:30 8,7 C 95 % 1021,9 hPa 0,0 l/m 5,8 km/h (2 Bft) W-SW 254 0 min 0,000 mm 0,0 UV-I 0 W/m 7,9 C 8,7 C 11,3 km/h (2 Bft) 100,00 %
23.10.2015 06:35 8,7 C 95 % 1021,9 hPa 0,0 l/m 7,5 km/h (2 Bft) W-NW 284 0 min 0,000 mm 0,0 UV-I 0 W/m 7,9 C 7,9 C 17,7 km/h (3 Bft) 100,00 %
23.10.2015 06:40 8,7 C 95 % 1022,0 hPa 0,0 l/m 6,6 km/h (2 Bft) W 273 0 min 0,000 mm 0,0 UV-I 0 W/m 7,9 C 8,6 C 16,1 km/h (3 Bft) 97,39 %
23.10.2015 06:45 8,8 C 95 % 1022,0 hPa 0,0 l/m 6,6 km/h (2 Bft) W 275 0 min 0,000 mm 0,0 UV-I 0 W/m 8,0 C 8,7 C 11,3 km/h (2 Bft) 99,11 %
23.10.2015 06:50 8,8 C 95 % 1022,1 hPa 0,0 l/m 5,0 km/h (1 Bft) W-SW 252 0 min 0,000 mm 0,0 UV-I 0 W/m 8,0 C 8,8 C 12,9 km/h (3 Bft) 100,00 %
23.10.2015 06:55 8,8 C 95 % 1022,1 hPa 0,0 l/m 5,9 km/h (2 Bft) W 269 0 min 0,000 mm 0,0 UV-I 0 W/m 8,0 C 8,8 C 12,9 km/h (3 Bft) 98,35 %
23.10.2015 07:00 8,8 C 95 % 1022,3 hPa 0,0 l/m 5,9 km/h (2 Bft) W 270 0 min 0,000 mm 0,0 UV-I 0 W/m 8,0 C 8,8 C 11,3 km/h (2 Bft) 99,19 %
23.10.2015 07:05 8,8 C 95 % 1022,4 hPa 0,0 l/m 5,3 km/h (1 Bft) W-NW 296 0 min 0,000 mm 0,0 UV-I 0 W/m 8,0 C 8,8 C 11,3 km/h (2 Bft) 100,00 %
23.10.2015 07:10 8,8 C 95 % 1022,4 hPa 0,0 l/m 6,5 km/h (2 Bft) W-SW 247 0 min 0,000 mm 0,0 UV-I 0 W/m 8,0 C 8,7 C 14,5 km/h (3 Bft) 99,15 %
23.10.2015 07:15 8,8 C 95 % 1022,4 hPa 0,0 l/m 5,2 km/h (1 Bft) W 275 0 min 0,000 mm 0,0 UV-I 0 W/m 8,0 C 8,8 C 11,3 km/h (2 Bft) 100,00 %
23.10.2015 07:20 8,8 C 95 % 1022,4 hPa 0,0 l/m 6,1 km/h (2 Bft) W 268 0 min 0,000 mm 0,0 UV-I 0 W/m 8,0 C 8,8 C 12,9 km/h (3 Bft) 100,00 %
23.10.2015 07:25 8,8 C 96 % 1022,4 hPa 0,0 l/m 8,1 km/h (2 Bft) W-SW 250 0 min 0,000 mm 0,0 UV-I 0 W/m 8,2 C 7,5 C 12,9 km/h (3 Bft) 100,00 %
23.10.2015 07:35 8,8 C 96 % 1022,5 hPa 0,0 l/m 7,4 km/h (2 Bft) W 268 0 min 0,000 mm 0,0 UV-I 0 W/m 8,2 C 8,0 C 14,5 km/h (3 Bft) 99,38 %
23.10.2015 07:40 8,8 C 96 % 1022,5 hPa 0,0 l/m 5,5 km/h (1 Bft) SW 219 0 min 0,000 mm 0,0 UV-I 0 W/m 8,2 C 8,8 C 14,5 km/h (3 Bft) 100,00 %
23.10.2015 07:45 8,8 C 96 % 1022,5 hPa 0,0 l/m 5,0 km/h (1 Bft) W 280 0 min 0,000 mm 0,0 UV-I 0 W/m 8,2 C 8,8 C 12,9 km/h (3 Bft) 100,00 %
23.10.2015 07:50 8,8 C 96 % 1022,6 hPa 0,0 l/m 5,5 km/h (1 Bft) W 269 0 min 0,000 mm 0,0 UV-I 0 W/m 8,2 C 8,8 C 12,9 km/h (3 Bft) 99,11 %
23.10.2015 07:55 8,8 C 96 % 1022,7 hPa 0,0 l/m 5,8 km/h (2 Bft) W-SW 252 0 min 0,000 mm 0,0 UV-I 0 W/m 8,2 C 8,8 C 12,9 km/h (3 Bft) 100,00 %
23.10.2015 08:00 8,9 C 95 % 1022,7 hPa 0,0 l/m 6,0 km/h (2 Bft) SW 223 0 min 0,000 mm 0,0 UV-I 3 W/m 8,1 C 8,9 C 11,3 km/h (2 Bft) 100,00 %
23.10.2015 08:05 8,9 C 95 % 1022,8 hPa 0,0 l/m 6,0 km/h (2 Bft) W 280 0 min 0,000 mm 0,0 UV-I 8 W/m 8,1 C 8,9 C 12,9 km/h (3 Bft) 98,21 %
23.10.2015 08:10 9,0 C 95 % 1022,8 hPa 0,0 l/m 5,7 km/h (1 Bft) S-SW 198 0 min 0,000 mm 0,0 UV-I 11 W/m 8,2 C 9,0 C 12,9 km/h (3 Bft) 99,13 %
23.10.2015 08:15 9,1 C 95 % 1022,8 hPa 0,0 l/m 5,3 km/h (1 Bft) SW 226 0 min 0,000 mm 0,0 UV-I 12 W/m 8,3 C 9,1 C 12,9 km/h (3 Bft) 100,00 %
23.10.2015 08:20 9,1 C 95 % 1022,8 hPa 0,0 l/m 5,2 km/h (1 Bft) W 261 0 min 0,000 mm 0,0 UV-I 12 W/m 8,3 C 9,1 C 11,3 km/h (2 Bft) 100,00 %
23.10.2015 08:25 9,2 C 95 % 1022,9 hPa 0,0 l/m 5,1 km/h (1 Bft) W 275 0 min 0,000 mm 0,0 UV-I 13 W/m 8,4 C 9,2 C 9,7 km/h (2 Bft) 100,00 %
23.10.2015 08:30 9,2 C 95 % 1022,9 hPa 0,0 l/m 5,5 km/h (1 Bft) W 260 0 min 0,000 mm 0,0 UV-I 15 W/m 8,4 C 9,2 C 12,9 km/h (3 Bft) 98,21 %
23.10.2015 08:35 9,2 C 94 % 1022,9 hPa 0,0 l/m 5,9 km/h (2 Bft) SW 235 0 min 0,000 mm 0,0 UV-I 18 W/m 8,3 C 9,2 C 12,9 km/h (3 Bft) 98,39 %
23.10.2015 08:40 9,2 C 94 % 1023,0 hPa 0,0 l/m 5,6 km/h (1 Bft) W-SW 251 0 min 0,000 mm 0,0 UV-I 21 W/m 8,3 C 9,2 C 11,3 km/h (2 Bft) 100,00 %
23.10.2015 08:45 9,2 C 95 % 1023,0 hPa 0,0 l/m 5,1 km/h (1 Bft) W 280 0 min 0,000 mm 0,0 UV-I 25 W/m 8,4 C 9,2 C 11,3 km/h (2 Bft) 99,13 %
23.10.2015 08:50 9,2 C 95 % 1023,0 hPa 0,0 l/m 5,1 km/h (1 Bft) W 276 0 min 0,000 mm 0,0 UV-I 27 W/m 8,4 C 9,2 C 12,9 km/h (3 Bft) 100,00 %
23.10.2015 08:55 9,2 C 95 % 1023,1 hPa 0,0 l/m 6,4 km/h (2 Bft) W-SW 254 0 min 0,000 mm 0,0 UV-I 31 W/m 8,4 C 9,2 C 12,9 km/h (3 Bft) 100,00 %
23.10.2015 09:00 9,2 C 95 % 1023,1 hPa 0,0 l/m 6,0 km/h (2 Bft) SW 234 0 min 0,000 mm 0,0 UV-I 37 W/m 8,4 C 9,2 C 14,5 km/h (3 Bft) 100,00 %
23.10.2015 09:05 9,2 C 96 % 1023,1 hPa 0,0 l/m 5,2 km/h (1 Bft) W-SW 252 0 min 0,000 mm 0,0 UV-I 41 W/m 8,6 C 9,2 C 14,5 km/h (3 Bft) 100,00 %
23.10.2015 09:10 9,2 C 96 % 1023,1 hPa 0,0 l/m 5,7 km/h (1 Bft) W-SW 254 0 min 0,000 mm 0,0 UV-I 40 W/m 8,6 C 9,2 C 11,3 km/h (2 Bft) 99,13 %
23.10.2015 09:15 9,2 C 96 % 1023,2 hPa 0,0 l/m 6,5 km/h (2 Bft) SW 236 0 min 0,000 mm 0,0 UV-I 40 W/m 8,6 C 9,2 C 14,5 km/h (3 Bft) 99,19 %
23.10.2015 09:20 9,2 C 96 % 1023,2 hPa 0,0 l/m 6,1 km/h (2 Bft) W 264 0 min 0,000 mm 0,0 UV-I 48 W/m 8,6 C 9,2 C 11,3 km/h (2 Bft) 100,00 %
23.10.2015 09:25 9,2 C 96 % 1023,3 hPa 0,0 l/m 5,9 km/h (2 Bft) W 269 0 min 0,000 mm 0,0 UV-I 46 W/m 8,6 C 9,2 C 14,5 km/h (3 Bft) 100,00 %
23.10.2015 09:30 9,3 C 96 % 1023,4 hPa 0,0 l/m 4,9 km/h (1 Bft) S-SW 207 0 min 0,000 mm 0,0 UV-I 50 W/m 8,7 C 9,3 C 9,7 km/h (2 Bft) 100,00 %
23.10.2015 09:35 9,3 C 96 % 1023,4 hPa 0,0 l/m 5,3 km/h (1 Bft) SW 214 0 min 0,000 mm 0,0 UV-I 52 W/m 8,7 C 9,3 C 11,3 km/h (2 Bft) 99,21 %
23.10.2015 09:40 9,3 C 96 % 1023,4 hPa 0,0 l/m 4,4 km/h (1 Bft) S 191 0 min 0,000 mm 0,0 UV-I 55 W/m 8,7 C 9,3 C 8,0 km/h (2 Bft) 100,00 %
23.10.2015 09:45 9,4 C 96 % 1023,5 hPa 0,0 l/m 4,5 km/h (1 Bft) W-SW 244 0 min 0,000 mm 0,0 UV-I 61 W/m 8,8 C 9,4 C 11,3 km/h (2 Bft) 99,12 %
23.10.2015 09:50 9,4 C 96 % 1023,5 hPa 0,0 l/m 4,3 km/h (1 Bft) W-SW 257 0 min 0,000 mm 0,0 UV-I 56 W/m 8,8 C 9,4 C 9,7 km/h (2 Bft) 100,00 %
23.10.2015 09:55 9,5 C 96 % 1023,6 hPa 0,0 l/m 4,1 km/h (1 Bft) NW 307 0 min 0,000 mm 0,0 UV-I 55 W/m 8,9 C 9,5 C 8,0 km/h (2 Bft) 99,19 %
23.10.2015 10:00 9,6 C 96 % 1023,6 hPa 0,0 l/m 4,6 km/h (1 Bft) W 279 0 min 0,000 mm 0,0 UV-I 55 W/m 9,0 C 9,6 C 9,7 km/h (2 Bft) 100,00 %
23.10.2015 10:05 9,6 C 96 % 1023,7 hPa 0,0 l/m 3,8 km/h (1 Bft) SW 235 0 min 0,025 mm 0,0 UV-I 57 W/m 9,0 C 9,6 C 11,3 km/h (2 Bft) 100,00 %
23.10.2015 10:10 9,7 C 95 % 1023,8 hPa 0,0 l/m 3,9 km/h (1 Bft) W-SW 240 0 min 0,000 mm 0,0 UV-I 55 W/m 8,9 C 9,7 C 8,0 km/h (2 Bft) 99,11 %
23.10.2015 10:15 9,7 C 95 % 1023,7 hPa 0,0 l/m 3,6 km/h (1 Bft) W-SW 258 0 min 0,000 mm 0,0 UV-I 58 W/m 8,9 C 9,7 C 9,7 km/h (2 Bft) 100,00 %
23.10.2015 10:20 9,7 C 95 % 1023,8 hPa 0,0 l/m 4,0 km/h (1 Bft) W-SW 256 0 min 0,000 mm 0,0 UV-I 68 W/m 8,9 C 9,7 C 9,7 km/h (2 Bft) 99,13 %
23.10.2015 10:25 9,8 C 95 % 1023,9 hPa 0,0 l/m 4,2 km/h (1 Bft) SW 223 0 min 0,000 mm 0,0 UV-I 67 W/m 9,0 C 9,8 C 6,4 km/h (2 Bft) 99,11 %
23.10.2015 10:30 9,8 C 95 % 1023,9 hPa 0,0 l/m 4,0 km/h (1 Bft) W-SW 251 0 min 0,000 mm 0,0 UV-I 61 W/m 9,0 C 9,8 C 11,3 km/h (2 Bft) 100,00 %
23.10.2015 10:35 9,9 C 95 % 1024,0 hPa 0,0 l/m 2,7 km/h (1 Bft) S-SW 196 0 min 0,000 mm 0,0 UV-I 53 W/m 9,1 C 9,9 C 4,8 km/h (1 Bft) 100,00 %
23.10.2015 10:40 9,9 C 95 % 1024,0 hPa 0,0 l/m 3,9 km/h (1 Bft) SW 236 0 min 0,000 mm 0,0 UV-I 57 W/m 9,1 C 9,9 C 8,0 km/h (2 Bft) 99,12 %
23.10.2015 10:45 9,9 C 94 % 1024,1 hPa 0,0 l/m 3,5 km/h (1 Bft) W 266 0 min 0,000 mm 0,0 UV-I 63 W/m 9,0 C 9,9 C 8,0 km/h (2 Bft) 99,13 %
23.10.2015 10:50 9,9 C 95 % 1024,1 hPa 0,0 l/m 3,6 km/h (1 Bft) W-SW 252 0 min 0,000 mm 0,0 UV-I 69 W/m 9,1 C 9,9 C 6,4 km/h (2 Bft) 100,00 %
23.10.2015 10:55 9,9 C 95 % 1024,2 hPa 0,0 l/m 4,0 km/h (1 Bft) W-SW 242 0 min 0,000 mm 0,0 UV-I 62 W/m 9,1 C 9,9 C 9,7 km/h (2 Bft) 99,12 %
23.10.2015 11:00 9,9 C 95 % 1024,2 hPa 0,0 l/m 4,5 km/h (1 Bft) W 272 0 min 0,026 mm 0,0 UV-I 57 W/m 9,1 C 9,9 C 11,3 km/h (2 Bft) 100,00 %
23.10.2015 11:05 9,9 C 95 % 1024,2 hPa 0,0 l/m 3,6 km/h (1 Bft) W-SW 240 0 min 0,000 mm 0,1 UV-I 73 W/m 9,1 C 9,9 C 9,7 km/h (2 Bft) 98,26 %
23.10.2015 11:10 10,1 C 96 % 1024,1 hPa 0,0 l/m 3,3 km/h (1 Bft) W-SW 254 0 min 0,000 mm 0,7 UV-I 134 W/m 9,5 C 10,1 C 8,0 km/h (2 Bft) 99,19 %
23.10.2015 11:15 10,2 C 95 % 1024,2 hPa 0,0 l/m 6,0 km/h (2 Bft) W-SW 248 0 min 0,000 mm 0,9 UV-I 165 W/m 9,4 C 10,2 C 14,5 km/h (3 Bft) 100,00 %
23.10.2015 11:20 10,3 C 95 % 1024,2 hPa 0,0 l/m 3,4 km/h (1 Bft) SW 228 0 min 0,000 mm 0,8 UV-I 156 W/m 9,5 C 10,3 C 9,7 km/h (2 Bft) 100,00 %
23.10.2015 11:25 10,3 C 95 % 1024,3 hPa 0,0 l/m 5,6 km/h (1 Bft) W-SW 255 0 min 0,000 mm 0,7 UV-I 135 W/m 9,5 C 10,3 C 12,9 km/h (3 Bft) 100,00 %
23.10.2015 11:30 10,3 C 95 % 1024,2 hPa 0,0 l/m 3,9 km/h (1 Bft) SW 230 0 min 0,000 mm 0,5 UV-I 100 W/m 9,5 C 10,3 C 6,4 km/h (2 Bft) 100,00 %
23.10.2015 11:35 10,3 C 95 % 1024,2 hPa 0,0 l/m 4,8 km/h (1 Bft) W 279 0 min 0,000 mm 0,5 UV-I 94 W/m 9,5 C 10,3 C 12,9 km/h (3 Bft) 99,07 %
23.10.2015 11:40 10,4 C 94 % 1024,2 hPa 0,0 l/m 4,8 km/h (1 Bft) W 271 0 min 0,000 mm 0,7 UV-I 118 W/m 9,5 C 10,4 C 9,7 km/h (2 Bft) 100,00 %
23.10.2015 11:45 10,4 C 94 % 1024,2 hPa 0,0 l/m 4,5 km/h (1 Bft) W 270 0 min 0,000 mm 0,8 UV-I 147 W/m 9,5 C 10,4 C 11,3 km/h (2 Bft) 100,00 %
23.10.2015 11:50 10,6 C 94 % 1024,3 hPa 0,0 l/m 4,6 km/h (1 Bft) W-SW 254 0 min 0,000 mm 0,8 UV-I 147 W/m 9,7 C 10,6 C 9,7 km/h (2 Bft) 100,00 %
23.10.2015 11:55 10,7 C 93 % 1024,2 hPa 0,0 l/m 6,3 km/h (2 Bft) W 273 0 min 0,000 mm 0,8 UV-I 149 W/m 9,6 C 10,7 C 12,9 km/h (3 Bft) 100,00 %
23.10.2015 12:00 10,7 C 93 % 1024,3 hPa 0,0 l/m 5,9 km/h (2 Bft) W-NW 303 0 min 0,051 mm 0,7 UV-I 129 W/m 9,6 C 10,7 C 17,7 km/h (3 Bft) 100,00 %
23.10.2015 12:05 10,7 C 91 % 1024,3 hPa 0,0 l/m 7,3 km/h (2 Bft) W-NW 296 0 min 0,000 mm 0,6 UV-I 104 W/m 9,3 C 10,1 C 12,9 km/h (3 Bft) 100,00 %
23.10.2015 12:10 10,7 C 91 % 1024,3 hPa 0,0 l/m 5,7 km/h (1 Bft) W 268 0 min 0,000 mm 0,8 UV-I 129 W/m 9,3 C 10,7 C 11,3 km/h (2 Bft) 100,00 %
23.10.2015 12:15 10,7 C 91 % 1024,3 hPa 0,0 l/m 4,6 km/h (1 Bft) W-NW 297 0 min 0,000 mm 1,0 UV-I 168 W/m 9,3 C 10,7 C 11,3 km/h (2 Bft) 99,13 %
23.10.2015 12:20 10,9 C 92 % 1024,3 hPa 0,0 l/m 5,7 km/h (1 Bft) W 265 0 min 0,000 mm 1,1 UV-I 177 W/m 9,7 C 10,9 C 9,7 km/h (2 Bft) 99,19 %
23.10.2015 12:25 11,0 C 91 % 1024,2 hPa 0,0 l/m 6,3 km/h (2 Bft) W 261 0 min 0,000 mm 1,2 UV-I 194 W/m 9,6 C 11,0 C 16,1 km/h (3 Bft) 100,00 %
23.10.2015 12:30 11,1 C 90 % 1024,3 hPa 0,0 l/m 5,8 km/h (2 Bft) SW 236 0 min 0,000 mm 1,3 UV-I 225 W/m 9,5 C 11,1 C 14,5 km/h (3 Bft) 100,00 %
23.10.2015 12:35 11,2 C 90 % 1024,2 hPa 0,0 l/m 7,9 km/h (2 Bft) W 275 5 min 0,000 mm 1,6 UV-I 282 W/m 9,6 C 10,2 C 16,1 km/h (3 Bft) 100,00 %
23.10.2015 12:40 11,5 C 90 % 1024,1 hPa 0,0 l/m 6,9 km/h (2 Bft) W-SW 246 5 min 0,000 mm 1,5 UV-I 298 W/m 9,9 C 11,2 C 16,1 km/h (3 Bft) 99,08 %
23.10.2015 12:45 11,4 C 88 % 1024,1 hPa 0,0 l/m 9,8 km/h (2 Bft) W-NW 290 0 min 0,000 mm 1,5 UV-I 231 W/m 9,5 C 9,3 C 17,7 km/h (3 Bft) 100,00 %
23.10.2015 12:50 11,3 C 89 % 1024,1 hPa 0,0 l/m 7,1 km/h (2 Bft) W-NW 283 0 min 0,000 mm 1,5 UV-I 233 W/m 9,6 C 10,8 C 12,9 km/h (3 Bft) 99,11 %
23.10.2015 12:55 11,4 C 89 % 1024,0 hPa 0,0 l/m 6,9 km/h (2 Bft) SW 229 0 min 0,000 mm 1,4 UV-I 195 W/m 9,7 C 11,1 C 17,7 km/h (3 Bft) 99,11 %
23.10.2015 13:10 11,4 C 88 % 1024,0 hPa 0,0 l/m 4,3 km/h (1 Bft) W 263 0 min 0,101 mm 1,1 UV-I 181 W/m 9,5 C 11,4 C 9,7 km/h (2 Bft) 99,72 %
23.10.2015 13:15 11,4 C 89 % 1024,0 hPa 0,0 l/m 5,5 km/h (1 Bft) W-SW 258 0 min 0,000 mm 0,7 UV-I 130 W/m 9,7 C 11,4 C 14,5 km/h (3 Bft) 99,15 %
23.10.2015 13:20 11,4 C 89 % 1023,9 hPa 0,0 l/m 3,0 km/h (1 Bft) W 265 0 min 0,000 mm 0,7 UV-I 119 W/m 9,7 C 11,4 C 4,8 km/h (1 Bft) 99,08 %
23.10.2015 13:25 11,4 C 89 % 1024,0 hPa 0,0 l/m 3,3 km/h (1 Bft) N-NW 333 0 min 0,000 mm 0,7 UV-I 133 W/m 9,7 C 11,4 C 8,0 km/h (2 Bft) 100,00 %
23.10.2015 13:30 11,4 C 88 % 1023,9 hPa 0,0 l/m 3,0 km/h (1 Bft) W 280 0 min 0,000 mm 0,5 UV-I 101 W/m 9,5 C 11,4 C 9,7 km/h (2 Bft) 100,00 %
23.10.2015 13:35 11,3 C 88 % 1023,9 hPa 0,0 l/m 3,4 km/h (1 Bft) SW 221 0 min 0,000 mm 0,5 UV-I 99 W/m 9,4 C 11,3 C 8,0 km/h (2 Bft) 99,17 %
23.10.2015 13:40 11,3 C 89 % 1024,0 hPa 0,0 l/m 4,5 km/h (1 Bft) W 261 0 min 0,000 mm 0,7 UV-I 128 W/m 9,6 C 11,3 C 9,7 km/h (2 Bft) 99,12 %
23.10.2015 13:45 11,4 C 88 % 1024,0 hPa 0,0 l/m 3,8 km/h (1 Bft) W 267 0 min 0,000 mm 0,7 UV-I 122 W/m 9,5 C 11,4 C 9,7 km/h (2 Bft) 100,00 %
23.10.2015 13:50 11,4 C 88 % 1023,9 hPa 0,0 l/m 3,8 km/h (1 Bft) W-SW 248 0 min 0,000 mm 0,8 UV-I 166 W/m 9,5 C 11,4 C 6,4 km/h (2 Bft) 100,00 %
23.10.2015 13:55 11,5 C 87 % 1023,9 hPa 0,0 l/m 4,1 km/h (1 Bft) W 274 0 min 0,000 mm 0,7 UV-I 146 W/m 9,4 C 11,5 C 9,7 km/h (2 Bft) 100,00 %
23.10.2015 14:00 11,5 C 87 % 1023,9 hPa 0,0 l/m 4,2 km/h (1 Bft) W 261 0 min 0,076 mm 0,8 UV-I 155 W/m 9,4 C 11,5 C 8,0 km/h (2 Bft) 99,13 %
23.10.2015 14:05 11,5 C 88 % 1024,0 hPa 0,0 l/m 4,1 km/h (1 Bft) W 261 0 min 0,000 mm 0,6 UV-I 101 W/m 9,6 C 11,5 C 11,3 km/h (2 Bft) 100,00 %
23.10.2015 14:10 11,5 C 87 % 1023,9 hPa 0,0 l/m 4,2 km/h (1 Bft) W 277 0 min 0,000 mm 0,6 UV-I 99 W/m 9,4 C 11,5 C 11,3 km/h (2 Bft) 100,00 %
23.10.2015 14:15 11,6 C 87 % 1024,0 hPa 0,0 l/m 4,1 km/h (1 Bft) W 276 0 min 0,000 mm 0,8 UV-I 143 W/m 9,5 C 11,6 C 11,3 km/h (2 Bft) 98,21 %
23.10.2015 14:20 11,8 C 87 % 1024,0 hPa 0,0 l/m 3,7 km/h (1 Bft) W 259 0 min 0,000 mm 1,1 UV-I 221 W/m 9,7 C 11,8 C 8,0 km/h (2 Bft) 100,00 %
23.10.2015 14:25 11,9 C 87 % 1023,9 hPa 0,0 l/m 4,0 km/h (1 Bft) W 259 0 min 0,000 mm 1,1 UV-I 249 W/m 9,8 C 11,9 C 8,0 km/h (2 Bft) 100,00 %
23.10.2015 14:30 12,2 C 87 % 1023,9 hPa 0,0 l/m 4,6 km/h (1 Bft) SW 219 0 min 0,000 mm 1,1 UV-I 243 W/m 10,1 C 12,2 C 11,3 km/h (2 Bft) 100,00 %
23.10.2015 14:35 12,2 C 85 % 1023,8 hPa 0,0 l/m 6,0 km/h (2 Bft) W-SW 258 5 min 0,000 mm 1,1 UV-I 247 W/m 9,8 C 12,2 C 11,3 km/h (2 Bft) 100,00 %
23.10.2015 14:40 12,2 C 86 % 1023,9 hPa 0,0 l/m 3,9 km/h (1 Bft) W 281 0 min 0,000 mm 0,9 UV-I 181 W/m 9,9 C 12,2 C 9,7 km/h (2 Bft) 100,00 %
23.10.2015 14:45 12,1 C 85 % 1023,8 hPa 0,0 l/m 4,9 km/h (1 Bft) W 267 0 min 0,000 mm 0,8 UV-I 103 W/m 9,7 C 12,1 C 11,3 km/h (2 Bft) 100,00 %
23.10.2015 14:50 11,9 C 85 % 1023,8 hPa 0,0 l/m 5,7 km/h (1 Bft) W 281 0 min 0,000 mm 0,8 UV-I 108 W/m 9,5 C 11,9 C 11,3 km/h (2 Bft) 97,46 %
23.10.2015 14:55 11,9 C 86 % 1023,6 hPa 0,0 l/m 4,8 km/h (1 Bft) SW 231 0 min 0,000 mm 0,8 UV-I 160 W/m 9,6 C 11,9 C 9,7 km/h (2 Bft) 100,00 %
23.10.2015 15:00 12,0 C 85 % 1023,8 hPa 0,0 l/m 4,1 km/h (1 Bft) SW 227 0 min 0,102 mm 1,0 UV-I 164 W/m 9,6 C 12,0 C 9,7 km/h (2 Bft) 100,00 %
23.10.2015 15:05 12,2 C 86 % 1023,8 hPa 0,0 l/m 3,0 km/h (1 Bft) W-NW 291 5 min 0,000 mm 1,1 UV-I 226 W/m 9,9 C 12,2 C 8,0 km/h (2 Bft) 97,32 %
23.10.2015 15:10 12,5 C 85 % 1023,8 hPa 0,0 l/m 3,3 km/h (1 Bft) W 275 5 min 0,000 mm 1,1 UV-I 288 W/m 10,0 C 12,5 C 6,4 km/h (2 Bft) 100,00 %
23.10.2015 15:15 12,7 C 83 % 1023,8 hPa 0,0 l/m 4,3 km/h (1 Bft) W 261 5 min 0,000 mm 1,0 UV-I 234 W/m 9,9 C 12,7 C 11,3 km/h (2 Bft) 100,00 %
23.10.2015 15:20 12,7 C 82 % 1023,8 hPa 0,0 l/m 4,6 km/h (1 Bft) W-SW 248 5 min 0,000 mm 0,9 UV-I 227 W/m 9,7 C 12,7 C 9,7 km/h (2 Bft) 100,00 %
23.10.2015 15:25 12,9 C 82 % 1023,8 hPa 0,0 l/m 3,9 km/h (1 Bft) W-NW 285 5 min 0,000 mm 0,9 UV-I 264 W/m 9,9 C 12,9 C 9,7 km/h (2 Bft) 100,00 %
23.10.2015 15:30 12,9 C 81 % 1023,7 hPa 0,0 l/m 4,6 km/h (1 Bft) W-SW 256 0 min 0,000 mm 0,7 UV-I 168 W/m 9,7 C 12,9 C 11,3 km/h (2 Bft) 99,11 %
23.10.2015 15:35 12,7 C 81 % 1023,8 hPa 0,0 l/m 6,6 km/h (2 Bft) W 263 5 min 0,000 mm 0,7 UV-I 233 W/m 9,5 C 12,6 C 14,5 km/h (3 Bft) 100,00 %
23.10.2015 15:40 12,8 C 81 % 1023,8 hPa 0,0 l/m 6,8 km/h (2 Bft) W-NW 290 5 min 0,000 mm 0,6 UV-I 240 W/m 9,6 C 12,6 C 14,5 km/h (3 Bft) 99,15 %
23.10.2015 15:45 12,8 C 79 % 1023,8 hPa 0,0 l/m 7,9 km/h (2 Bft) SW 229 5 min 0,000 mm 0,6 UV-I 236 W/m 9,2 C 11,9 C 16,1 km/h (3 Bft) 99,21 %
23.10.2015 15:50 12,8 C 79 % 1023,9 hPa 0,0 l/m 5,7 km/h (1 Bft) NW 306 5 min 0,000 mm 0,6 UV-I 217 W/m 9,2 C 12,8 C 12,9 km/h (3 Bft) 100,00 %
23.10.2015 15:55 13,1 C 81 % 1023,9 hPa 0,0 l/m 2,8 km/h (1 Bft) S-SW 213 5 min 0,000 mm 0,6 UV-I 301 W/m 9,9 C 13,1 C 9,7 km/h (2 Bft) 100,00 %
23.10.2015 16:00 13,2 C 82 % 1023,9 hPa 0,0 l/m 2,5 km/h (1 Bft) SW 236 5 min 0,127 mm 0,5 UV-I 284 W/m 10,2 C 13,2 C 8,0 km/h (2 Bft) 100,00 %
23.10.2015 16:05 12,9 C 81 % 1024,0 hPa 0,0 l/m 3,2 km/h (1 Bft) W 261 0 min 0,000 mm 0,0 UV-I 139 W/m 9,7 C 12,9 C 6,4 km/h (2 Bft) 98,25 %
23.10.2015 16:10 12,7 C 80 % 1024,0 hPa 0,0 l/m 5,2 km/h (1 Bft) W-NW 298 5 min 0,000 mm 0,0 UV-I 154 W/m 9,3 C 12,7 C 9,7 km/h (2 Bft) 99,13 %
23.10.2015 16:15 12,7 C 82 % 1024,0 hPa 0,0 l/m 3,7 km/h (1 Bft) S 190 0 min 0,000 mm 0,0 UV-I 125 W/m 9,7 C 12,7 C 12,9 km/h (3 Bft) 100,00 %
23.10.2015 16:20 12,7 C 81 % 1024,0 hPa 0,0 l/m 3,6 km/h (1 Bft) W 264 5 min 0,000 mm 0,0 UV-I 186 W/m 9,5 C 12,7 C 6,4 km/h (2 Bft) 100,00 %
23.10.2015 16:25 12,6 C 81 % 1024,0 hPa 0,0 l/m 3,7 km/h (1 Bft) S-SW 196 5 min 0,000 mm 0,0 UV-I 140 W/m 9,4 C 12,6 C 9,7 km/h (2 Bft) 98,39 %
23.10.2015 16:30 12,3 C 82 % 1024,0 hPa 0,0 l/m 3,4 km/h (1 Bft) W-NW 285 0 min 0,000 mm 0,0 UV-I 51 W/m 9,3 C 12,3 C 8,0 km/h (2 Bft) 100,00 %
23.10.2015 16:35 12,1 C 83 % 1024,1 hPa 0,0 l/m 3,0 km/h (1 Bft) W-SW 257 0 min 0,000 mm 0,0 UV-I 41 W/m 9,3 C 12,1 C 6,4 km/h (2 Bft) 98,29 %
23.10.2015 16:40 11,9 C 85 % 1024,0 hPa 0,0 l/m 2,9 km/h (1 Bft) W-NW 288 0 min 0,000 mm 0,0 UV-I 39 W/m 9,5 C 11,9 C 6,4 km/h (2 Bft) 99,19 %
23.10.2015 16:45 11,9 C 84 % 1024,0 hPa 0,0 l/m 3,3 km/h (1 Bft) W-NW 285 0 min 0,000 mm 0,0 UV-I 85 W/m 9,3 C 11,9 C 6,4 km/h (2 Bft) 99,12 %
23.10.2015 16:50 12,2 C 84 % 1024,0 hPa 0,0 l/m 3,1 km/h (1 Bft) SW 234 5 min 0,000 mm 0,0 UV-I 129 W/m 9,6 C 12,2 C 6,4 km/h (2 Bft) 100,00 %
23.10.2015 16:55 12,2 C 83 % 1024,0 hPa 0,0 l/m 3,9 km/h (1 Bft) W 280 5 min 0,000 mm 0,0 UV-I 112 W/m 9,4 C 12,2 C 6,4 km/h (2 Bft) 100,00 %
23.10.2015 17:00 12,2 C 82 % 1024,0 hPa 0,0 l/m 4,6 km/h (1 Bft) W 260 5 min 0,051 mm 0,0 UV-I 96 W/m 9,2 C 12,2 C 9,7 km/h (2 Bft) 100,00 %
23.10.2015 17:05 12,2 C 83 % 1024,0 hPa 0,0 l/m 3,6 km/h (1 Bft) SW 236 5 min 0,000 mm 0,0 UV-I 81 W/m 9,4 C 12,2 C 8,0 km/h (2 Bft) 100,00 %
23.10.2015 17:10 12,2 C 83 % 1024,0 hPa 0,0 l/m 3,5 km/h (1 Bft) W-NW 284 5 min 0,000 mm 0,0 UV-I 73 W/m 9,4 C 12,2 C 6,4 km/h (2 Bft) 100,00 %
23.10.2015 17:15 12,1 C 83 % 1023,9 hPa 0,0 l/m 2,9 km/h (1 Bft) W-SW 257 5 min 0,000 mm 0,0 UV-I 63 W/m 9,3 C 12,1 C 4,8 km/h (1 Bft) 100,00 %
23.10.2015 17:20 11,9 C 83 % 1023,9 hPa 0,0 l/m 3,3 km/h (1 Bft) W 261 0 min 0,000 mm 0,0 UV-I 53 W/m 9,1 C 11,9 C 6,4 km/h (2 Bft) 99,19 %
23.10.2015 17:25 11,8 C 84 % 1023,9 hPa 0,0 l/m 3,1 km/h (1 Bft) W-NW 283 0 min 0,000 mm 0,0 UV-I 42 W/m 9,2 C 11,8 C 6,4 km/h (2 Bft) 100,00 %
23.10.2015 17:30 11,7 C 84 % 1023,9 hPa 0,0 l/m 3,2 km/h (1 Bft) W-SW 250 0 min 0,000 mm 0,0 UV-I 29 W/m 9,1 C 11,7 C 6,4 km/h (2 Bft) 99,21 %
23.10.2015 17:35 11,4 C 84 % 1023,9 hPa 0,0 l/m 3,0 km/h (1 Bft) SW 215 0 min 0,000 mm 0,0 UV-I 25 W/m 8,8 C 11,4 C 4,8 km/h (1 Bft) 100,00 %
23.10.2015 17:40 11,2 C 85 % 1023,9 hPa 0,0 l/m 1,8 km/h (1 Bft) W-SW 249 0 min 0,000 mm 0,0 UV-I 19 W/m 8,8 C 11,2 C 3,2 km/h (1 Bft) 100,00 %
23.10.2015 17:45 11,1 C 86 % 1024,0 hPa 0,0 l/m 0,9 km/h (0 Bft) W-SW 249 0 min 0,000 mm 0,0 UV-I 15 W/m 8,8 C 11,1 C 3,2 km/h (1 Bft) 98,21 %
23.10.2015 17:50 10,9 C 86 % 1024,0 hPa 0,0 l/m 1,6 km/h (1 Bft) W-SW 242 5 min 0,000 mm 0,0 UV-I 12 W/m 8,7 C 10,9 C 3,2 km/h (1 Bft) 100,00 %
23.10.2015 17:55 10,7 C 87 % 1024,0 hPa 0,0 l/m 1,8 km/h (1 Bft) SW 229 0 min 0,000 mm 0,0 UV-I 10 W/m 8,6 C 10,7 C 3,2 km/h (1 Bft) 100,00 %
23.10.2015 18:00 10,6 C 87 % 1024,0 hPa 0,0 l/m 0,5 km/h (0 Bft) SW 229 0 min 0,025 mm 0,0 UV-I 7 W/m 8,5 C 10,6 C 3,2 km/h (1 Bft) 99,23 %
23.10.2015 18:05 10,3 C 88 % 1024,0 hPa 0,0 l/m 0,2 km/h (0 Bft) SW 229 0 min 0,000 mm 0,0 UV-I 5 W/m 8,4 C 10,3 C 1,6 km/h (1 Bft) 100,00 %
23.10.2015 18:10 9,9 C 89 % 1024,0 hPa 0,0 l/m 1,6 km/h (1 Bft) S 173 0 min 0,000 mm 0,0 UV-I 2 W/m 8,2 C 9,9 C 3,2 km/h (1 Bft) 99,19 %
23.10.2015 18:15 9,4 C 91 % 1024,0 hPa 0,0 l/m 0,7 km/h (0 Bft) S 173 0 min 0,000 mm 0,0 UV-I 0 W/m 8,0 C 9,4 C 1,6 km/h (1 Bft) 98,31 %
23.10.2015 18:20 9,2 C 92 % 1024,0 hPa 0,0 l/m 0,8 km/h (0 Bft) S 173 0 min 0,000 mm 0,0 UV-I 0 W/m 8,0 C 9,2 C 3,2 km/h (1 Bft) 100,00 %
23.10.2015 18:25 9,1 C 92 % 1024,1 hPa 0,0 l/m 1,6 km/h (1 Bft) S-SO 167 0 min 0,000 mm 0,0 UV-I 0 W/m 7,9 C 9,1 C 4,8 km/h (1 Bft) 100,00 %
23.10.2015 18:30 9,0 C 93 % 1024,0 hPa 0,0 l/m 1,6 km/h (1 Bft) S-SO 167 0 min 0,000 mm 0,0 UV-I 0 W/m 7,9 C 9,0 C 4,8 km/h (1 Bft) 100,00 %
23.10.2015 18:35 9,2 C 93 % 1024,1 hPa 0,0 l/m 1,1 km/h (1 Bft) S 183 0 min 0,000 mm 0,0 UV-I 0 W/m 8,1 C 9,2 C 3,2 km/h (1 Bft) 97,37 %
23.10.2015 18:40 9,0 C 93 % 1024,1 hPa 0,0 l/m 0,5 km/h (0 Bft) S 183 0 min 0,000 mm 0,0 UV-I 0 W/m 7,9 C 9,0 C 3,2 km/h (1 Bft) 100,00 %
23.10.2015 18:45 9,0 C 93 % 1024,2 hPa 0,0 l/m 1,4 km/h (1 Bft) S 183 0 min 0,000 mm 0,0 UV-I 0 W/m 7,9 C 9,0 C 3,2 km/h (1 Bft) 100,00 %
23.10.2015 18:50 8,9 C 93 % 1024,2 hPa 0,0 l/m 0,5 km/h (0 Bft) S 183 0 min 0,000 mm 0,0 UV-I 0 W/m 7,8 C 8,9 C 3,2 km/h (1 Bft) 100,00 %
23.10.2015 18:55 8,8 C 93 % 1024,1 hPa 0,0 l/m 0,3 km/h (0 Bft) S 183 0 min 0,000 mm 0,0 UV-I 0 W/m 7,7 C 8,8 C 1,6 km/h (1 Bft) 99,21 %
23.10.2015 19:00 8,7 C 93 % 1024,1 hPa 0,0 l/m 1,2 km/h (1 Bft) S 178 0 min 0,000 mm 0,0 UV-I 0 W/m 7,6 C 8,7 C 1,6 km/h (1 Bft) 99,08 %
23.10.2015 19:05 8,6 C 93 % 1024,1 hPa 0,0 l/m 0,5 km/h (0 Bft) S 178 0 min 0,000 mm 0,0 UV-I 0 W/m 7,5 C 8,6 C 1,6 km/h (1 Bft) 100,00 %
23.10.2015 19:10 8,5 C 94 % 1024,0 hPa 0,0 l/m 0,5 km/h (0 Bft) S 178 0 min 0,000 mm 0,0 UV-I 0 W/m 7,6 C 8,5 C 1,6 km/h (1 Bft) 99,11 %
23.10.2015 19:15 8,3 C 93 % 1024,1 hPa 0,0 l/m 0,3 km/h (0 Bft) S 178 0 min 0,000 mm 0,0 UV-I 0 W/m 7,2 C 8,3 C 1,6 km/h (1 Bft) 100,00 %
23.10.2015 19:20 8,1 C 94 % 1024,1 hPa 0,0 l/m 0,0 km/h (0 Bft) S 178 0 min 0,000 mm 0,0 UV-I 0 W/m 7,2 C 8,1 C 1,6 km/h (1 Bft) 100,00 %
23.10.2015 19:25 8,2 C 95 % 1024,0 hPa 0,0 l/m 0,3 km/h (0 Bft) S 178 0 min 0,000 mm 0,0 UV-I 0 W/m 7,4 C 8,2 C 1,6 km/h (1 Bft) 99,17 %
23.10.2015 19:30 8,3 C 95 % 1024,1 hPa 0,0 l/m 0,5 km/h (0 Bft) S 178 0 min 0,000 mm 0,0 UV-I 0 W/m 7,5 C 8,3 C 1,6 km/h (1 Bft) 99,15 %
23.10.2015 19:35 8,2 C 94 % 1024,1 hPa 0,0 l/m 0,3 km/h (0 Bft) S 178 0 min 0,000 mm 0,0 UV-I 0 W/m 7,3 C 8,2 C 1,6 km/h (1 Bft) 100,00 %
23.10.2015 19:40 8,3 C 94 % 1024,1 hPa 0,0 l/m 0,4 km/h (0 Bft) S 178 0 min 0,000 mm 0,0 UV-I 0 W/m 7,4 C 8,3 C 1,6 km/h (1 Bft) 100,00 %
23.10.2015 19:45 8,3 C 94 % 1024,0 hPa 0,0 l/m 0,5 km/h (0 Bft) S 178 0 min 0,000 mm 0,0 UV-I 0 W/m 7,4 C 8,3 C 1,6 km/h (1 Bft) 100,00 %
23.10.2015 19:50 8,2 C 94 % 1024,1 hPa 0,0 l/m 0,2 km/h (0 Bft) S 178 0 min 0,000 mm 0,0 UV-I 0 W/m 7,3 C 8,2 C 1,6 km/h (1 Bft) 99,17 %
23.10.2015 19:55 7,8 C 94 % 1024,1 hPa 0,0 l/m 0,0 km/h (0 Bft) S 178 0 min 0,000 mm 0,0 UV-I 0 W/m 6,9 C 7,8 C 0,0 km/h (0 Bft) 98,20 %
23.10.2015 20:00 7,6 C 95 % 1024,1 hPa 0,0 l/m 0,5 km/h (0 Bft) S 174 0 min 0,000 mm 0,0 UV-I 0 W/m 6,9 C 7,6 C 1,6 km/h (1 Bft) 100,00 %
23.10.2015 20:05 7,4 C 96 % 1024,1 hPa 0,0 l/m 1,0 km/h (0 Bft) S 174 0 min 0,000 mm 0,0 UV-I 0 W/m 6,8 C 7,4 C 1,6 km/h (1 Bft) 99,13 %
23.10.2015 20:10 7,7 C 97 % 1024,1 hPa 0,0 l/m 1,8 km/h (1 Bft) S-SO 164 0 min 0,000 mm 0,0 UV-I 0 W/m 7,3 C 7,7 C 3,2 km/h (1 Bft) 100,00 %
23.10.2015 20:20 7,4 C 96 % 1024,2 hPa 0,0 l/m 0,0 km/h (0 Bft) S-SO 164 0 min 0,000 mm 0,0 UV-I 0 W/m 6,8 C 7,4 C 0,0 km/h (0 Bft) 98,32 %
23.10.2015 20:25 7,3 C 96 % 1024,1 hPa 0,0 l/m 0,0 km/h (0 Bft) S-SO 164 0 min 0,000 mm 0,0 UV-I 0 W/m 6,7 C 7,3 C 0,0 km/h (0 Bft) 99,15 %
23.10.2015 20:30 7,2 C 96 % 1024,1 hPa 0,0 l/m 0,0 km/h (0 Bft) S-SO 164 0 min 0,000 mm 0,0 UV-I 0 W/m 6,6 C 7,2 C 0,0 km/h (0 Bft) 100,00 %
23.10.2015 20:35 6,8 C 96 % 1024,0 hPa 0,0 l/m 0,9 km/h (0 Bft) S-SO 164 0 min 0,000 mm 0,0 UV-I 0 W/m 6,2 C 6,8 C 1,6 km/h (1 Bft) 100,00 %
23.10.2015 20:40 6,7 C 97 % 1024,0 hPa 0,0 l/m 1,1 km/h (1 Bft) S-SO 164 0 min 0,000 mm 0,0 UV-I 0 W/m 6,3 C 6,7 C 3,2 km/h (1 Bft) 100,00 %
23.10.2015 20:45 6,6 C 96 % 1024,1 hPa 0,0 l/m 0,5 km/h (0 Bft) S-SO 164 0 min 0,000 mm 0,0 UV-I 0 W/m 6,0 C 6,6 C 1,6 km/h (1 Bft) 98,21 %
23.10.2015 20:50 6,5 C 96 % 1024,1 hPa 0,0 l/m 0,0 km/h (0 Bft) S-SO 164 0 min 0,000 mm 0,0 UV-I 0 W/m 5,9 C 6,5 C 0,0 km/h (0 Bft) 98,33 %
23.10.2015 20:55 6,6 C 96 % 1024,0 hPa 0,0 l/m 0,0 km/h (0 Bft) S-SO 164 0 min 0,000 mm 0,0 UV-I 0 W/m 6,0 C 6,6 C 0,0 km/h (0 Bft) 100,00 %
23.10.2015 21:00 6,4 C 96 % 1024,0 hPa 0,0 l/m 0,0 km/h (0 Bft) S-SO 164 0 min 0,000 mm 0,0 UV-I 0 W/m 5,8 C 6,4 C 0,0 km/h (0 Bft) 98,11 %
23.10.2015 21:05 6,3 C 97 % 1024,0 hPa 0,0 l/m 0,0 km/h (0 Bft) S-SO 164 0 min 0,000 mm 0,0 UV-I 0 W/m 5,9 C 6,3 C 0,0 km/h (0 Bft) 100,00 %
23.10.2015 21:10 6,1 C 96 % 1024,0 hPa 0,0 l/m 0,0 km/h (0 Bft) S-SO 164 0 min 0,000 mm 0,0 UV-I 0 W/m 5,5 C 6,1 C 0,0 km/h (0 Bft) 100,00 %
23.10.2015 21:15 6,0 C 97 % 1024,0 hPa 0,0 l/m 0,1 km/h (0 Bft) S-SO 164 0 min 0,000 mm 0,0 UV-I 0 W/m 5,6 C 6,0 C 1,6 km/h (1 Bft) 99,12 %
23.10.2015 21:20 5,9 C 97 % 1023,9 hPa 0,0 l/m 0,4 km/h (0 Bft) S-SO 164 0 min 0,000 mm 0,0 UV-I 0 W/m 5,5 C 5,9 C 1,6 km/h (1 Bft) 99,21 %
23.10.2015 21:25 6,2 C 97 % 1023,9 hPa 0,0 l/m 0,0 km/h (0 Bft) S-SO 164 0 min 0,000 mm 0,0 UV-I 0 W/m 5,8 C 6,2 C 0,0 km/h (0 Bft) 99,08 %
23.10.2015 21:30 6,3 C 97 % 1023,9 hPa 0,0 l/m 0,0 km/h (0 Bft) S-SO 164 0 min 0,000 mm 0,0 UV-I 0 W/m 5,9 C 6,3 C 0,0 km/h (0 Bft) 100,00 %
23.10.2015 21:35 6,2 C 97 % 1023,9 hPa 0,0 l/m 0,0 km/h (0 Bft) S-SO 164 0 min 0,000 mm 0,0 UV-I 0 W/m 5,8 C 6,2 C 0,0 km/h (0 Bft) 98,35 %
23.10.2015 21:40 6,1 C 97 % 1023,8 hPa 0,0 l/m 0,0 km/h (0 Bft) S-SO 164 0 min 0,000 mm 0,0 UV-I 0 W/m 5,7 C 6,1 C 0,0 km/h (0 Bft) 100,00 %
23.10.2015 21:45 5,9 C 97 % 1023,8 hPa 0,0 l/m 0,0 km/h (0 Bft) S-SO 164 0 min 0,000 mm 0,0 UV-I 0 W/m 5,5 C 5,9 C 0,0 km/h (0 Bft) 100,00 %
23.10.2015 21:50 5,8 C 97 % 1023,8 hPa 0,0 l/m 0,0 km/h (0 Bft) S-SO 164 0 min 0,000 mm 0,0 UV-I 0 W/m 5,4 C 5,8 C 0,0 km/h (0 Bft) 100,00 %
23.10.2015 21:55 6,2 C 97 % 1023,9 hPa 0,0 l/m 0,1 km/h (0 Bft) SO 130 0 min 0,000 mm 0,0 UV-I 0 W/m 5,8 C 6,2 C 1,6 km/h (1 Bft) 100,00 %
23.10.2015 22:00 6,4 C 98 % 1023,8 hPa 0,0 l/m 0,0 km/h (0 Bft) SO 130 0 min 0,000 mm 0,0 UV-I 0 W/m 6,1 C 6,4 C 0,0 km/h (0 Bft) 100,00 %
23.10.2015 22:05 6,2 C 98 % 1023,8 hPa 0,0 l/m 0,0 km/h (0 Bft) SO 130 0 min 0,000 mm 0,0 UV-I 0 W/m 5,9 C 6,2 C 0,0 km/h (0 Bft) 98,21 %
23.10.2015 22:10 5,7 C 96 % 1023,8 hPa 0,0 l/m 0,0 km/h (0 Bft) SO 130 0 min 0,000 mm 0,0 UV-I 0 W/m 5,1 C 5,7 C 0,0 km/h (0 Bft) 97,50 %
23.10.2015 22:15 5,4 C 97 % 1023,8 hPa 0,0 l/m 0,0 km/h (0 Bft) SO 130 0 min 0,000 mm 0,0 UV-I 0 W/m 5,0 C 5,4 C 1,6 km/h (1 Bft) 99,19 %
23.10.2015 22:20 5,2 C 97 % 1023,8 hPa 0,0 l/m 0,3 km/h (0 Bft) SO 130 0 min 0,000 mm 0,0 UV-I 0 W/m 4,8 C 5,2 C 1,6 km/h (1 Bft) 100,00 %
23.10.2015 22:25 5,2 C 97 % 1023,9 hPa 0,0 l/m 0,0 km/h (0 Bft) SO 130 0 min 0,000 mm 0,0 UV-I 0 W/m 4,8 C 5,2 C 1,6 km/h (1 Bft) 100,00 %
23.10.2015 22:30 5,2 C 97 % 1023,9 hPa 0,0 l/m 0,0 km/h (0 Bft) SO 130 0 min 0,000 mm 0,0 UV-I 0 W/m 4,8 C 5,2 C 0,0 km/h (0 Bft) 100,00 %
23.10.2015 22:35 5,1 C 97 % 1023,8 hPa 0,0 l/m 0,0 km/h (0 Bft) SO 130 0 min 0,000 mm 0,0 UV-I 0 W/m 4,7 C 5,1 C 0,0 km/h (0 Bft) 100,00 %
23.10.2015 22:40 5,2 C 97 % 1023,8 hPa 0,0 l/m 0,0 km/h (0 Bft) SO 130 0 min 0,000 mm 0,0 UV-I 0 W/m 4,8 C 5,2 C 0,0 km/h (0 Bft) 100,00 %
23.10.2015 22:45 5,3 C 98 % 1023,8 hPa 0,0 l/m 0,0 km/h (0 Bft) SO 130 0 min 0,000 mm 0,0 UV-I 0 W/m 5,0 C 5,3 C 0,0 km/h (0 Bft) 100,00 %
23.10.2015 22:50 5,4 C 98 % 1023,9 hPa 0,0 l/m 0,0 km/h (0 Bft) SO 130 0 min 0,000 mm 0,0 UV-I 0 W/m 5,1 C 5,4 C 0,0 km/h (0 Bft) 100,00 %
23.10.2015 22:55 5,4 C 98 % 1023,8 hPa 0,0 l/m 0,0 km/h (0 Bft) SO 130 0 min 0,000 mm 0,0 UV-I 0 W/m 5,1 C 5,4 C 0,0 km/h (0 Bft) 100,00 %
23.10.2015 23:00 5,6 C 98 % 1023,8 hPa 0,0 l/m 0,0 km/h (0 Bft) SO 130 0 min 0,000 mm 0,0 UV-I 0 W/m 5,3 C 5,6 C 0,0 km/h (0 Bft) 98,39 %
23.10.2015 23:05 5,6 C 98 % 1023,7 hPa 0,0 l/m 0,4 km/h (0 Bft) SO 130 0 min 0,000 mm 0,0 UV-I 0 W/m 5,3 C 5,6 C 1,6 km/h (1 Bft) 99,12 %
23.10.2015 23:10 5,6 C 98 % 1023,8 hPa 0,0 l/m 0,0 km/h (0 Bft) SO 130 0 min 0,000 mm 0,0 UV-I 0 W/m 5,3 C 5,6 C 0,0 km/h (0 Bft) 99,19 %
23.10.2015 23:15 5,5 C 98 % 1023,7 hPa 0,0 l/m 0,0 km/h (0 Bft) SO 130 0 min 0,000 mm 0,0 UV-I 0 W/m 5,2 C 5,5 C 1,6 km/h (1 Bft) 100,00 %
23.10.2015 23:20 5,3 C 98 % 1023,7 hPa 0,0 l/m 0,0 km/h (0 Bft) SO 130 0 min 0,000 mm 0,0 UV-I 0 W/m 5,0 C 5,3 C 0,0 km/h (0 Bft) 99,19 %
23.10.2015 23:25 4,9 C 98 % 1023,6 hPa 0,0 l/m 0,2 km/h (0 Bft) SO 130 0 min 0,000 mm 0,0 UV-I 0 W/m 4,6 C 4,9 C 1,6 km/h (1 Bft) 98,21 %
23.10.2015 23:30 5,1 C 98 % 1023,6 hPa 0,0 l/m 0,0 km/h (0 Bft) SO 130 0 min 0,000 mm 0,0 UV-I 0 W/m 4,8 C 5,1 C 0,0 km/h (0 Bft) 100,00 %
23.10.2015 23:35 5,1 C 98 % 1023,6 hPa 0,0 l/m 0,0 km/h (0 Bft) SO 130 0 min 0,000 mm 0,0 UV-I 0 W/m 4,8 C 5,1 C 0,0 km/h (0 Bft) 99,29 %
23.10.2015 23:40 5,1 C 98 % 1023,6 hPa 0,0 l/m 0,0 km/h (0 Bft) SO 130 0 min 0,000 mm 0,0 UV-I 0 W/m 4,8 C 5,1 C 0,0 km/h (0 Bft) 98,21 %
23.10.2015 23:45 4,6 C 97 % 1023,6 hPa 0,0 l/m 0,0 km/h (0 Bft) SO 130 0 min 0,000 mm 0,0 UV-I 0 W/m 4,2 C 4,6 C 0,0 km/h (0 Bft) 100,00 %
23.10.2015 23:50 4,4 C 98 % 1023,6 hPa 0,0 l/m 0,0 km/h (0 Bft) SO 130 0 min 0,000 mm 0,0 UV-I 0 W/m 4,1 C 4,4 C 0,0 km/h (0 Bft) 99,13 %
23.10.2015 23:55 4,6 C 98 % 1023,6 hPa 0,0 l/m 0,0 km/h (0 Bft) SO 130 0 min 0,000 mm 0,0 UV-I 0 W/m 4,3 C 4,6 C 0,0 km/h (0 Bft) 99,15 %
_ Min-Zeit 23:50 15:45 00:00 - 19:20 - - - - - - 23:50 23:50 19:55 15:05
Minimum _ 4,3 C 79 % 1020,5 hPa - 0,0 km/h (0 Bft) - - - - - - 4,1 C 4,4 C 0,0 km/h (0 Bft) 97,32 %
_ Max-Zeit 16:00 22:00 11:25 00:45 12:45 - - 12:35 16:00 12:35 15:55 16:00 16:00 04:05 00:10
Maximum _ 13,3 C 98 % 1024,3 hPa 0,2 l/m 9,8 km/h
W-NW (2 Bft)
- - 5 min 0,127 mm 1,6 UV-I 301 W/m 10,2 C 13,2 C 19,3 km/h
W-SW (3 Bft)
100,00 %
Durchschnitt _ 9,0 C 93 % 1023,0 hPa #1,4 l/m 4,3 km/h (1 Bft) W - #2:00 h #0,584 mm 0,9 UV-I 113 W/m 7,9 C 8,8 C 9,2 km/h (2 Bft) 99,50 %